TimeCDT,TemperatureF,Dew PointF,Humidity,Sea Level PressureIn,VisibilityMPH,Wind Direction,Wind SpeedMPH,Gust SpeedMPH,PrecipitationIn,Events,Conditions,WindDirDegrees,DateUTC
12:53 AM,32.0,30.0,92,30.32,10.0,North,11.5,-,N/A,,Partly Cloudy,350,2012-10-06 05:53:00
1:53 AM,33.1,30.9,92,30.33,10.0,NNW,9.2,-,N/A,,Mostly Cloudy,340,2012-10-06 06:53:00
2:36 AM,32.0,28.4,87,30.30,10.0,North,10.4,-,N/A,,Partly Cloudy,350,2012-10-06 07:36:00
2:53 AM,32.0,28.9,88,30.34,10.0,North,10.4,-,N/A,,Clear,350,2012-10-06 07:53:00
3:53 AM,30.9,28.0,89,30.34,10.0,NW,6.9,-,N/A,,Partly Cloudy,320,2012-10-06 08:53:00
4:53 AM,30.0,28.0,92,30.34,10.0,NW,6.9,-,N/A,,Clear,320,2012-10-06 09:53:00
5:53 AM,30.0,27.0,88,30.35,10.0,NW,6.9,-,N/A,,Clear,310,2012-10-06 10:53:00
6:53 AM,28.9,27.0,92,30.36,10.0,WNW,6.9,-,N/A,,Partly Cloudy,300,2012-10-06 11:53:00
7:53 AM,28.9,27.0,92,30.37,10.0,WNW,6.9,-,N/A,,Partly Cloudy,290,2012-10-06 12:53:00
8:53 AM,30.9,28.0,89,30.37,10.0,WNW,8.1,-,N/A,,Scattered Clouds,290,2012-10-06 13:53:00
9:53 AM,34.0,30.9,89,30.38,10.0,WNW,9.2,-,N/A,,Scattered Clouds,290,2012-10-06 14:53:00
10:53 AM,39.0,32.0,76,30.38,10.0,WNW,11.5,-,N/A,,Scattered Clouds,290,2012-10-06 15:53:00
11:53 AM,39.9,32.0,73,30.37,10.0,WNW,10.4,-,N/A,,Scattered Clouds,290,2012-10-06 16:53:00
12:53 PM,42.1,30.9,65,30.36,10.0,NW,10.4,-,N/A,,Mostly Cloudy,310,2012-10-06 17:53:00
1:53 PM,45.0,32.0,60,30.32,10.0,NW,9.2,-,N/A,,Scattered Clouds,310,2012-10-06 18:53:00
2:53 PM,46.0,30.0,54,30.29,10.0,West,11.5,-,N/A,,Scattered Clouds,260,2012-10-06 19:53:00
3:53 PM,46.9,28.9,50,30.26,10.0,WSW,12.7,17.3,N/A,,Scattered Clouds,250,2012-10-06 20:53:00
4:53 PM,46.9,28.0,48,30.24,10.0,West,11.5,-,N/A,,Mostly Cloudy,260,2012-10-06 21:53:00
5:53 PM,46.0,26.1,46,30.22,10.0,West,12.7,-,N/A,,Mostly Cloudy,260,2012-10-06 22:53:00
6:53 PM,41.0,30.0,65,30.21,10.0,WSW,4.6,-,N/A,,Mostly Cloudy,250,2012-10-06 23:53:00
7:53 PM,37.0,28.9,73,30.20,10.0,SSW,4.6,-,N/A,,Mostly Cloudy,210,2012-10-07 00:53:00
8:53 PM,36.0,27.0,70,30.18,10.0,SSW,8.1,-,N/A,,Scattered Clouds,210,2012-10-07 01:53:00
9:53 PM,35.1,25.0,67,30.16,10.0,SSW,10.4,-,N/A,,Scattered Clouds,210,2012-10-07 02:53:00
10:53 PM,33.8,24.8,70,30.11,10.0,SSW,9.2,-,N/A,,Partly Cloudy,210,2012-10-07 03:53:00
11:53 PM,32.0,25.0,75,30.12,10.0,SSW,9.2,-,N/A,,Clear,210,2012-10-07 04:53:00